This is the latest recevied weather packets stored in our database for station/object DB0OHL. If no packets are shown the sender has not sent any weather packets the latest 10 day(s).
| Time | Temp. | Humidity | Pressure | Rain* | Wind** | Luminosity | Snow |
|---|---|---|---|---|---|---|---|
| 1777955170 | 12.22° C | 99% | 1009.7 hPa | 0.51 mm | - | - | - |
| 1777954567 | 12.22° C | 99% | 1009.6 hPa | 0.51 mm | - | - | - |
| 1777953965 | 12.22° C | 99% | 1009.7 hPa | 0.51 mm | - | - | - |
| 1777953362 | 12.22° C | 99% | 1009.7 hPa | 0.25 mm | - | - | - |
| 1777952760 | 12.22° C | 99% | 1009.8 hPa | 0.25 mm | - | - | - |
| 1777952157 | 12.22° C | 98% | 1009.9 hPa | 0.25 mm | - | - | - |
| 1777951554 | 12.78° C | 98% | 1010 hPa | 0.25 mm | - | - | - |
| 1777950952 | 13.33° C | 96% | 1010 hPa | 0.25 mm | - | - | - |
| 1777950349 | 13.33° C | 93% | 1010.1 hPa | 0 mm | - | - | - |
| 1777949747 | 13.33° C | 93% | 1010.1 hPa | 0 mm | - | - | - |
| 1777949144 | 13.33° C | 93% | 1010.1 hPa | 0 mm | - | - | - |
| 1777948542 | 13.33° C | 94% | 1010.1 hPa | 0 mm | - | - | - |
| 1777947939 | 13.33° C | 94% | 1010 hPa | 0 mm | - | - | - |
| 1777947337 | 13.33° C | 94% | 1010.2 hPa | 0 mm | - | - | - |
| 1777946734 | 13.33° C | 94% | 1010.1 hPa | 0 mm | - | - | - |
| 1777946132 | 13.33° C | 93% | 1010.4 hPa | 0 mm | - | - | - |
| 1777945529 | 13.33° C | 94% | 1010.3 hPa | 0 mm | - | - | - |
| 1777944927 | 13.33° C | 94% | 1010.5 hPa | 0 mm | - | - | - |
| 1777944324 | 13.33° C | 95% | 1010.4 hPa | 0 mm | - | - | - |
| 1777943722 | 13.33° C | 94% | 1010.4 hPa | 0 mm | - | - | - |
| 1777943119 | 13.33° C | 94% | 1010.5 hPa | 0 mm | - | - | - |
| 1777942517 | 13.33° C | 94% | 1010.6 hPa | 0 mm | - | - | - |
| 1777941974 | 12.78° C | 94% | 1010.7 hPa | 0 mm | - | - | - |
| 1777941372 | 12.78° C | 96% | 1010.7 hPa | 0 mm | - | - | - |
| 1777940769 | 12.78° C | 97% | 1010.9 hPa | 0 mm | - | - | - |
* Rain latest hour (hover to see other rain measurements)
** Current wind speed in m/s (hover to see current wind gust speed)